Regional Weather Roundup
Issued by NWS

Home | Current Version | Previous Version | Text Only | Print | Product List | Glossary Off
Versions: 1 2 3 4 5 6 7 8 9 10 11 12 13 14 15 16 17 18 19 20 21 22 23 24 25 26 27 28 29 30 31 32 33 34 35 36 37 38 39 40 41 42 43 44 45 46 47 48 49 50

000
ASUS43 KMPX 251301
RWRMN
WEATHER ROUNDUP FOR MINNESOTA
NATIONAL WEATHER SERVICE TWIN CITIES/CHANHASSEN MN
700 AM CST THU DEC 25 2014


NOTE: "FAIR" INDICATES FEW OR NO CLOUDS BELOW 12,000 FEET WITH NO
SIGNIFICANT WEATHER AND/OR OBSTRUCTIONS TO VISIBILITY. N/A MEANS
CURRENT SKY AND/OR WEATHER CONDITIONS ARE NOT AVAILABLE.

MNZ060>063-068>070-251400-
   Twin Cities Metro

CITY           SKY/WX    TMP DP  RH WIND       PRES   REMARKS
TWIN CITIES    CLOUDY    30  26  85 S8        29.67R WCI  22
ST PAUL        CLOUDY    30  26  85 S7        29.69R WCI  23
CRYSTAL        CLOUDY    31  26  82 S8        29.65R WCI  23
BLAINE         CLOUDY    32  30  93 S7        29.65R WCI  26
LAKEVILLE      CLOUDY    28  27  93 S7        29.68R WCI  21
EDEN PRAIRIE   CLOUDY    30  26  85 S12       29.65R WCI  20
SOUTH ST PAUL  CLOUDY    31  28  86 S10       29.68R WCI  22
LAKE ELMO      CLOUDY    32  28  86 S12       29.67R WCI  23
$$
MNZ001>005-007-008-013>017-022>024-027-028-251400-
   Northwest Minnesota

CITY           SKY/WX    TMP DP  RH WIND       PRES   REMARKS
BEMIDJI        CLOUDY    29  27  92 W15       29.54R WCI  18
HALLOCK        CLOUDY    30  27  86 NW12      29.57R WCI  21
ROSEAU         CLOUDY    30  25  80 W8        29.53R WCI  23
WARROAD        CLOUDY    28  25  86 W8        29.52R FOG     WCI  20
THIEF RVR FALL CLOUDY    28  25  86 W6        29.57R WCI  22
CROOKSTON      CLOUDY    28  27  93 W6        29.60R WCI  22
FOSSTON        CLOUDY    25  25 100 W7        29.58R FOG     WCI  17
DETROIT LAKES  CLOUDY    30  28  93 NW8       29.59R WCI  23
MOORHEAD       CLOUDY    27  27 100 NW13      29.62R WCI  16
PARK RAPIDS    CLOUDY    30  28  92 W9        29.55R WCI  22
MAHNOMEN       FOG       26  26  99 NW8       29.58R VSB 3/4 WCI  18
$$
MNZ006-009>011-018-025>026-251400-
   North Central Minnesota

CITY           SKY/WX    TMP DP  RH WIND       PRES   REMARKS
BAUDETTE       CLOUDY    30  26  85 W6        29.51R WCI  24
FLAG ISLAND    MIX PCPN  28  27  93 SW8       29.49R WCI  20
INTL FALLS     CLOUDY    29  26  89 W6        29.50R WCI  23
WASKISH        CLOUDY    30  28  93 SW10      29.53R WCI  21
BIG FORK       FLURRIES  30  27  86 SW5       29.53R WCI  25
LONGVILLE      CLOUDY    28  27  93 SW5       29.56R WCI  23
GRAND RAPIDS   CLOUDY    30  25  80 W6        29.55R WCI  24
CRANE LAKE     CLOUDY    28  27  93 W3        29.54R
ORR            CLOUDY    28  25  86 CALM      29.50R
COOK           CLOUDY    30  27  86 W8        29.53R WCI  23
WALKER         CLOUDY    29  27  92 SW8       29.54R WCI  21
$$
MNZ012-019>021-037-251400-
   Northeast Minnesota

CITY           SKY/WX    TMP DP  RH WIND       PRES   REMARKS
DULUTH         CLOUDY    31  27  85 SW12      29.55R WCI  22
ELY            CLOUDY    30  27  86 W8        29.51R WCI  23
HIBBING        CLOUDY    31  26  82 W6        29.54R WCI  25
EVELETH        CLOUDY    32  30  93 SW9       29.54R WCI  24
DULUTH HARBOR  MIX PCPN  34  30  86 SW10      29.60R WCI  26
TWO HARBORS    CLOUDY    36  28  75 SW8       29.54R
SILVER BAY     CLOUDY    34  28  80 SW5       29.53R WCI  30
GRAND MARAIS     N/A     33  29  85 W5        29.54R WCI  29
G MARAIS ARPRT CLOUDY    27  21  80 W5        29.49R WCI  21
$$
MNZ029>031-032-039>041-046>048-054>057-064-251400-
   West Central Minnesota

CITY           SKY/WX    TMP DP  RH WIND       PRES   REMARKS
FERGUS FALLS   CLOUDY    28  28 100 W6        29.63R WCI  22
WHEATON        CLOUDY    28  27  93 CALM      29.63R
MORRIS         CLOUDY    28  28 100 CALM      29.60R
ALEXANDRIA     CLOUDY    29  26  89 SW7       29.59R WCI  22
ELBOW LAKE     CLOUDY    28  27  96 SW5       29.59R WCI  23
WADENA         CLOUDY    28  27  93 SW7       29.58R WCI  21
GLENWOOD       CLOUDY    28  27  93 SW7       29.61R WCI  21
APPLETON       LGT SNOW  30  28  93 CALM      29.62R
BENSON         MIX PCPN  30  27  86 SW3       29.61S
ORTONVILLE     CLOUDY    30  27  86 CALM      29.61R
MADISON        LGT SNOW  34  30  86 CALM      29.62R
WILLMAR        FAIR      30  28  93 CALM      29.63R FOG
$$
MNZ033>034-036-042>043-049>051-058-059-251400-
   Central Minnesota

CITY           SKY/WX    TMP DP  RH WIND       PRES   REMARKS
ST CLOUD       LGT SNOW  32  27  81 SW10      29.63R WCI  24
SAUK CENTRE    CLOUDY    29  27  92 S8        29.61R WCI  21
PAYNESVILLE    CLOUDY    27  26  96 S3        29.62S
AITKIN         CLOUDY    34  27  75 SW5       29.56S WCI  30
PINE RIVER     CLOUDY    28  27  93 W6        29.61R WCI  22
BRAINERD       CLOUDY    29  26  89 SW9       29.59R WCI  20
STAPLES        CLOUDY    28  27  93 SW6       29.58R WCI  22
LONG PRAIRIE   CLOUDY    28  27  93 W6        29.60R WCI  22
LITTLE FALLS   CLOUDY    30  27  86 SW5       29.61R WCI  25
LITCHFIELD     CLOUDY    30  30 100 CALM      29.63R
BUFFALO        CLOUDY    30  27  88 S7        29.65R WCI  23
MAPLE LAKE     CLOUDY    31  29  92 S5        29.65R WCI  26
$$
MNZ037-044-045-052-053-251400-
   East Central Minnesota

CITY           SKY/WX    TMP DP  RH WIND       PRES   REMARKS
PRINCETON      CLOUDY    30  28  93 S7        29.64R WCI  23
MORA           CLOUDY    32  27  80 SW10      29.64R WCI  24
CAMBRIDGE      CLOUDY    32  25  74 SW7       29.63R WCI  26
RUSH CITY      CLOUDY    31  27  86 SW7       29.64R WCI  24
MOOSE LAKE     CLOUDY    32  28  86 SW6       29.57S FOG     WCI  26
HINCKLEY       CLOUDY    32  30  93 CALM      29.62R
CLOQUET        FLURRIES  30  28  93 SW6       29.57R WCI  24
MCGREGOR       CLOUDY    32  28  86 SW6       29.57S WCI  26
$$
MNZ071>073-080-081-089-090-097-098-251400-
   Southwest Minnesota

CITY           SKY/WX    TMP DP  RH WIND       PRES   REMARKS
MONTEVIDEO     CLOUDY    30  30 100 CALM      29.63R
GRANITE FALLS  CLOUDY    30  28  92 S5        29.64R WCI  25
CANBY          CLOUDY    30  28  93 CALM      29.62R
MARSHALL       CLOUDY    28  25  86 CALM      29.61R
REDWOOD FALLS  CLOUDY    30  27  88 S8        29.62R WCI  22
OLIVIA         CLOUDY    28  28 100 S6        29.62R WCI  22
PIPESTONE      CLOUDY    28  28 100 S6        29.57R WCI  22
WINDOM         CLOUDY    30  28  93 S7        29.60R WCI  23
WORTHINGTON    CLOUDY    28 -18  12 S8        29.59R WCI  20
JACKSON        CLOUDY    30  28  93 S9        29.61S WCI  22
TRACY          CLOUDY    30  28  91 CALM      29.60R
SLAYTON        CLOUDY    28  27  95 S8        29.58S WCI  20
$$
MNZ065>067-074>077-082>085-091>093-251400-
   South Central Minnesota

CITY           SKY/WX    TMP DP  RH WIND       PRES   REMARKS
MANKATO        CLOUDY    30  25  80 S12       29.65R WCI  21
NEW ULM        CLOUDY    30  28  93 S8        29.64S FOG     WCI  23
ST JAMES       CLOUDY    32  28  86 SE10      29.64R WCI  24
FAIRMONT       CLOUDY    30  25  80 S14       29.63S WCI  20
GLENCOE        CLOUDY    31  30  95 S6        29.64R WCI  25
FARIBAULT      CLOUDY    30  27  86 S7        29.68R WCI  23
OWATONNA       CLOUDY    30  27  86 S12       29.68R FOG     WCI  21
ALBERT LEA     CLOUDY    30  28  93 S8        29.67R WCI  23
$$
MNZ078>079-086>088-094>096-251400-
   Southeast Minnesota

CITY           SKY/WX    TMP DP  RH WIND       PRES   REMARKS
ROCHESTER      CLOUDY    28  26  92 S15       29.69R WCI  16
RED WING       CLOUDY    30  27  86 S8        29.69R WCI  23
STANTON        CLOUDY    31  28  86 S8        29.67R WCI  24
DODGE CENTER   CLOUDY    28  28 100 S12       29.67R FOG     WCI  18
WINONA         CLOUDY    32  28  86 CALM      29.74R
AUSTIN         CLOUDY    28  27  93 S14       29.68S WCI  17
PRESTON        CLOUDY    28  26  92 S12       29.71R FOG     WCI  18
$$
ABBREVIATIONS USED IN REMARKS
   TC - TEMPERATURES IN CELSIUS
  WCI - WIND CHILL INDEX
   HX - HEAT INDEX
  VSB - VISIBILITY
$$


USA.gov is the U.S. government's official web portal to all federal, state and local government web resources and services.